[[{"header":{"parameterUnit":"m.s-1","parameterCategory":1,"la1":30.2991,"la2":30.254,"lo1":-89.0895,"lo2":-89.0444,"dy":0.0017,"dx":0.0017,"nx":28,"ny":28,"refTime":"2025-03-13T03:00:00:Z","depth":0,"parameterNumber":2,"parameterNumberName":"U-component_of_WINDS"},"data":[0,0,0,0,0,0,0,0,0,0,0,0,0,0,0,0,0,0,0,0,0,0,0,0,0,0,0,0,0,0,0,0,0,0,0,0,0,0,0,0,0,0,0,0,0,0,0,0,0,0,0,0,0,0,0,0,0,0,-2.3877,-2.3877,0,-2.3867,-2.3867,-2.3866,-2.3811,-2.381,-2.3808,-2.3807,-2.3797,-2.3798,-2.3799,0,0,0,0,0,0,0,0,0,0,0,0,0,-2.3851,-2.3852,-2.3877,-2.3877,-2.3877,-2.3867,-2.3867,-2.3866,-2.3811,-2.381,-2.3808,-2.3806,-2.3797,-2.3798,-2.3799,0,0,0,0,0,0,0,0,0,0,0,0,0,-2.3854,-2.3852,-2.3877,-2.3848,-2.3846,-2.3867,-2.3867,-2.3866,-2.3811,-2.381,-2.3808,-2.3806,-2.3797,-2.3798,-2.38,-2.3848,0,0,-2.3804,-2.3805,0,0,0,0,0,0,0,0,-2.3854,-2.3855,-2.3853,-2.385,-2.3847,-2.3838,-2.3854,-2.386,-2.3812,-2.3825,-2.3807,-2.3805,-2.3813,-2.3813,-2.3815,-2.3848,-2.3848,-2.3804,-2.3805,-2.3806,-2.3806,0,0,0,0,0,0,0,-2.3854,-2.3855,-2.3873,-2.3853,-2.3849,-2.3836,-2.3834,-2.3855,-2.383,-2.3823,-2.3819,-2.3819,-2.3811,-2.3814,-2.3814,-2.3847,-2.3804,-2.3806,-2.3806,-2.3807,-2.3919,-2.3921,0,0,0,0,0,0,-2.3858,-2.3855,-2.3873,-2.3873,-2.3846,-2.3838,-2.3836,-2.3843,-2.383,-2.3825,-2.382,-2.3816,-2.3812,-2.3813,-2.3814,-2.3869,-2.3806,-2.3807,-2.3808,-2.3917,-2.3919,-2.3922,0,0,0,0,0,0,-2.3857,-2.386,-2.3874,-2.3863,-2.3864,-2.3841,-2.3849,-2.3844,-2.3847,-2.3827,-2.3823,-2.3828,-2.3811,-2.3812,-2.384,-2.3868,-2.3808,-2.3809,-2.3914,-2.3918,-2.392,-2.398,0,0,0,0,0,0,-2.3857,-2.386,-2.3878,-2.3864,-2.3865,-2.39,-2.3851,-2.3845,-2.3849,-2.3844,-2.3833,-2.3829,-2.3809,-2.3838,-2.3841,-2.3869,-2.381,-2.3912,-2.3916,-2.3919,-2.3975,-2.3985,-2.3993,0,0,0,0,0,-2.3856,-2.3896,-2.3879,-2.3882,-2.3886,-2.3902,-2.3902,-2.3878,-2.3852,-2.387,-2.3857,-2.383,-2.3865,-2.3841,-2.3845,-2.3873,-2.391,-2.3915,-2.3919,-2.3971,-2.3983,-2.3992,0,0,0,0,0,0,-2.3914,-2.3893,-2.3875,-2.3911,-2.3908,-2.3892,-2.3914,-2.3891,-2.3896,-2.389,-2.386,-2.3859,-2.3891,-2.3885,-2.3859,-2.3919,-2.3882,-2.3888,-2.3921,-2.3932,-2.394,-2.394,-2.3812,0,0,0,0,0,-2.3931,-2.3945,-2.3926,-2.396,-2.3959,-2.3937,-2.3943,-2.3924,-2.3921,-2.3919,-2.3909,-2.3907,-2.3917,-2.3924,-2.3933,-2.3975,-2.3971,-2.3996,-2.4005,-2.4012,-2.4017,-2.4037,-2.4047,-2.3937,-2.3937,-2.3937,0,0,-2.3966,-2.3957,-2.3967,-2.3971,-2.3967,-2.3982,-2.3937,-2.3954,-2.3965,-2.3922,-2.3947,-2.394,-2.3936,-2.397,-2.3985,-2.3967,-2.4046,-2.4018,-2.4024,-2.4024,-2.4043,-2.4053,-2.4063,-2.394,-2.394,-2.3939,0,0,-2.4037,-2.4032,-2.4059,-2.4056,-2.405,-2.4035,-2.4041,-2.4029,-2.4022,-2.4047,-2.4014,-2.4027,-2.4046,-2.4044,-2.4045,-2.4116,-2.4091,-2.412,-2.4165,-2.4185,-2.4194,-2.4201,-2.4225,-2.4234,-2.4125,-2.4125,-2.4125,0,-2.4082,-2.4102,-2.4076,-2.4095,-2.4098,-2.406,-2.4086,-2.4085,-2.4082,-2.4085,-2.4064,-2.4086,-2.4081,-2.4114,-2.4131,-2.4134,-2.414,-2.412,-2.4195,-2.4202,-2.4208,-2.4231,-2.424,-2.4129,-2.4128,-2.4128,-2.4128,0,-2.4157,-2.4171,-2.4194,-2.4191,-2.4197,-2.422,-2.4197,-2.4206,-2.4187,-2.4175,-2.42,-2.4193,-2.4198,-2.4205,-2.4188,-2.4236,-2.4224,-2.42,-2.4162,-2.4223,-2.4243,-2.4251,-2.4134,-2.4132,-2.4131,-2.4131,0,0,-2.4263,-2.4245,-2.4254,-2.4252,-2.4243,-2.4254,-2.4276,-2.4281,-2.4288,-2.4288,-2.4305,-2.4322,-2.4299,-2.43,-2.4282,-2.4301,-2.4355,-2.4273,-2.4273,-2.4287,-2.4406,-2.4423,-2.4434,-2.4339,-2.4341,-2.4342,-2.4406,0,-2.4329,-2.4364,-2.4341,-2.438,-2.4392,-2.4357,-2.4376,-2.4372,-2.4361,-2.4371,-2.4359,-2.4371,-2.434,-2.4341,-2.4357,-2.4345,-2.4379,-2.4341,-2.4354,-2.4355,-2.4354,-2.4444,-2.4463,-2.4523,-2.4414,-2.4415,-2.4416,0,-2.4411,-2.4414,-2.4454,-2.4441,-2.4445,-2.4463,-2.4465,-2.4475,-2.447,-2.4461,-2.4463,-2.444,-2.4461,-2.4426,-2.4453,-2.4427,-2.4432,-2.4427,-2.4429,-2.4427,-2.4388,-2.4444,-2.4542,-2.455,-2.4429,-2.4428,-2.4427,0,-2.4483,-2.4496,-2.4521,-2.4521,-2.4508,-2.452,-2.4515,-2.4509,-2.4513,-2.4516,-2.4518,-2.4524,-2.4526,-2.4531,-2.451,-2.4487,-2.454,-2.4503,-2.4532,-2.4533,-2.4543,-2.4542,-2.4642,-2.455,-2.455,-2.455,-2.4549,0,-2.4558,-2.4584,-2.4553,-2.4568,-2.4595,-2.4569,-2.4597,-2.4588,-2.4583,-2.4596,-2.4567,-2.458,-2.4552,-2.4563,-2.4547,-2.4571,-2.4573,-2.4566,-2.4561,-2.4567,-2.4568,-2.4568,-2.4563,-2.4552,-2.4551,-2.4551,-2.4551,0,-2.4642,-2.4622,-2.4647,-2.4632,-2.4629,-2.4649,-2.4637,-2.465,-2.4638,-2.4654,-2.4657,-2.4637,-2.4648,-2.4628,-2.4637,-2.4626,-2.4659,-2.4649,-2.466,-2.4656,-2.4685,-2.4682,-2.4787,-2.4798,-2.4701,-2.4702,-2.4703,0,-2.469,-2.4709,-2.4695,-2.4702,-2.4698,-2.4709,-2.4713,-2.4688,-2.4693,-2.469,-2.4703,-2.4712,-2.4716,-2.4735,-2.4721,-2.4727,-2.4716,-2.4752,-2.4716,-2.4722,-2.4714,-2.4712,-2.4713,-2.4759,-2.476,-2.4761,-2.4762,0,-2.4778,-2.4767,-2.4774,-2.4777,-2.4782,-2.4784,-2.4783,-2.479,-2.4764,-2.4772,-2.4781,-2.4785,-2.4793,-2.4801,-2.4804,-2.4799,-2.4776,-2.4773,-2.478,-2.4785,-2.479,-2.4786,-2.4678,-2.477,-2.477,-2.4769,-2.4768,-2.4768,-2.4844,-2.4858,-2.4851,-2.4859,-2.4856,-2.4856,-2.4867,-2.4855,-2.4863,-2.4867,-2.4852,-2.4865,-2.486,-2.4861,-2.4859,-2.4869,-2.4853,-2.4863,-2.4865,-2.4868,-2.4871,-2.479,-2.487,-2.487,-2.4869,-2.4869,-2.4869,0,-2.4929,-2.4922,-2.493,-2.4929,-2.4935,-2.4913,-2.4911,-2.4918,-2.4929,-2.4926,-2.4931,-2.4942,-2.495,-2.4937,-2.4942,-2.4953,-2.4942,-2.4955,-2.4953,-2.4952,-2.4886,-2.4879,-2.4963,-2.4963,-2.4963,-2.4963,-2.4963,-2.4963,-2.4973,-2.4995,-2.4984,-2.5004,-2.4997,-2.5009,-2.501,-2.5009,-2.5007,-2.502,-2.5026,-2.5017,-2.501,-2.5014,-2.502,-2.5016,-2.5019,-2.5035,-2.5027,-2.4966,-2.4957,-2.4948,-2.4941,-2.5036,-2.5036,-2.5091,-2.5092,-2.5092]},{"header":{"parameterUnit":"m.s-1","parameterCategory":1,"la1":30.2991,"la2":30.254,"lo1":-89.0895,"lo2":-89.0444,"dy":0.0017,"dx":0.0017,"nx":28,"ny":28,"refTime":"2025-03-13T03:00:00:Z","depth":0,"parameterNumber":3,"parameterNumberName":"V-component_of_WINDS"},"data":[0,0,0,0,0,0,0,0,0,0,0,0,0,0,0,0,0,0,0,0,0,0,0,0,0,0,0,0,0,0,0,0,0,0,0,0,0,0,0,0,0,0,0,0,0,0,0,0,0,0,0,0,0,0,0,0,0,0,2.7118,2.7119,0,2.7194,2.7195,2.7196,2.7222,2.7222,2.7222,2.7221,2.73,2.7303,2.7305,0,0,0,0,0,0,0,0,0,0,0,0,0,2.6999,2.7001,2.7118,2.7119,2.712,2.7194,2.7195,2.7196,2.7222,2.7222,2.7222,2.7221,2.73,2.7302,2.7305,0,0,0,0,0,0,0,0,0,0,0,0,0,2.706,2.7001,2.7118,2.7142,2.7145,2.7194,2.7195,2.7196,2.7222,2.7222,2.7221,2.7221,2.7299,2.7302,2.7306,2.7337,0,0,2.7317,2.7318,0,0,0,0,0,0,0,0,2.7057,2.7065,2.7137,2.714,2.7144,2.7198,2.7182,2.7243,2.7223,2.7193,2.7221,2.7221,2.7267,2.7273,2.7288,2.734,2.7344,2.7317,2.7319,2.7321,2.7322,0,0,0,0,0,0,0,2.7052,2.7061,2.7148,2.7138,2.7142,2.715,2.7158,2.7194,2.7232,2.7195,2.7198,2.7206,2.7268,2.7285,2.729,2.7345,2.7317,2.732,2.7322,2.7324,2.743,2.7431,0,0,0,0,0,0,2.7044,2.7058,2.7146,2.715,2.7098,2.7152,2.7162,2.7181,2.7231,2.7238,2.7206,2.7207,2.7279,2.7286,2.7293,2.7335,2.7321,2.7324,2.7326,2.7429,2.743,2.7431,0,0,0,0,0,0,2.7041,2.7051,2.7143,2.7105,2.7117,2.7155,2.7177,2.7183,2.7199,2.7239,2.7247,2.7216,2.7279,2.7288,2.7326,2.7338,2.7326,2.7329,2.7429,2.743,2.7431,2.7417,0,0,0,0,0,0,2.7038,2.705,2.7061,2.7105,2.7119,2.7173,2.7177,2.7185,2.7205,2.7207,2.725,2.7257,2.7279,2.7321,2.733,2.7343,2.7332,2.7428,2.7429,2.743,2.7417,2.7418,2.7419,0,0,0,0,0,2.7033,2.7054,2.7062,2.7072,2.7133,2.7174,2.7182,2.7207,2.7206,2.7218,2.7245,2.7256,2.7335,2.7325,2.7335,2.7349,2.7427,2.7429,2.743,2.7417,2.7418,2.7419,0,0,0,0,0,0,2.7011,2.706,2.7069,2.7104,2.7135,2.7178,2.7194,2.7207,2.7238,2.7238,2.7268,2.7278,2.7314,2.7336,2.7323,2.7384,2.7382,2.7386,2.7368,2.737,2.737,2.7365,2.7335,0,0,0,0,0,2.701,2.7038,2.708,2.7107,2.7122,2.7156,2.7174,2.7191,2.7224,2.7237,2.7266,2.7298,2.7331,2.7351,2.7383,2.742,2.7432,2.7436,2.7436,2.7437,2.744,2.7464,2.7467,2.7436,2.7436,2.7436,0,0,2.7008,2.7039,2.7054,2.7103,2.7129,2.7159,2.7166,2.7196,2.7219,2.7241,2.728,2.7302,2.734,2.7379,2.7397,2.7398,2.7451,2.7439,2.7439,2.7442,2.7466,2.7469,2.7472,2.7437,2.7437,2.7437,0,0,2.7021,2.7046,2.7072,2.7099,2.7137,2.716,2.7167,2.7209,2.7225,2.7264,2.7282,2.7311,2.7365,2.7393,2.7413,2.744,2.7452,2.745,2.7454,2.7478,2.748,2.7483,2.7494,2.7498,2.7453,2.7452,2.7452,0,2.7014,2.7058,2.7085,2.7115,2.7137,2.7159,2.7188,2.7212,2.7259,2.7275,2.7274,2.7346,2.7373,2.742,2.7426,2.7442,2.7452,2.7445,2.7478,2.748,2.7483,2.7495,2.7499,2.7452,2.7452,2.7452,2.7452,0,2.7049,2.708,2.7098,2.7144,2.7168,2.7197,2.7229,2.7251,2.7266,2.729,2.7331,2.7364,2.7405,2.7417,2.7432,2.7467,2.7467,2.7471,2.7471,2.7485,2.7497,2.7501,2.7451,2.7452,2.7452,2.7452,0,0,2.7048,2.711,2.7116,2.7139,2.7185,2.721,2.7241,2.7281,2.73,2.7333,2.7362,2.7409,2.7415,2.7439,2.7458,2.7478,2.7501,2.7481,2.7483,2.7485,2.7545,2.7542,2.7546,2.7509,2.751,2.7511,2.7542,0,2.7068,2.7124,2.715,2.7196,2.7226,2.7249,2.7277,2.731,2.7333,2.7364,2.739,2.7424,2.7428,2.7443,2.7464,2.7493,2.7513,2.7491,2.7538,2.7539,2.7528,2.7552,2.7548,2.7576,2.7547,2.7547,2.7548,0,2.7097,2.7131,2.718,2.7225,2.7239,2.7263,2.7304,2.7332,2.7371,2.7387,2.7415,2.7433,2.747,2.7467,2.7519,2.7503,2.7524,2.7542,2.7543,2.7549,2.7545,2.756,2.7585,2.759,2.7555,2.7554,2.7554,0,2.7094,2.7151,2.7189,2.7207,2.726,2.7278,2.7301,2.7339,2.7362,2.7398,2.7414,2.7454,2.7476,2.7507,2.7536,2.7531,2.7587,2.7585,2.7603,2.7602,2.7613,2.7612,2.7644,2.7625,2.7625,2.7624,2.7624,0,2.7113,2.7142,2.7188,2.7211,2.7246,2.7277,2.7311,2.7336,2.737,2.74,2.7422,2.745,2.7487,2.752,2.7544,2.7585,2.7594,2.7609,2.7616,2.7608,2.7606,2.7623,2.7622,2.7626,2.7625,2.7625,2.7625,0,2.7114,2.7146,2.7188,2.7236,2.7249,2.7273,2.7315,2.734,2.7365,2.7403,2.7414,2.7454,2.7495,2.7528,2.758,2.7597,2.764,2.7646,2.7627,2.7631,2.7647,2.7646,2.7691,2.77,2.7673,2.7673,2.7674,0,2.7125,2.7148,2.7199,2.7221,2.7244,2.7278,2.7303,2.7336,2.7361,2.7408,2.7428,2.747,2.7506,2.757,2.7605,2.7647,2.7655,2.7668,2.7661,2.7654,2.7658,2.7656,2.766,2.7669,2.7669,2.7669,2.7669,0,2.7141,2.7156,2.719,2.7232,2.7261,2.7294,2.7329,2.7345,2.7385,2.7412,2.7454,2.7482,2.7537,2.758,2.7626,2.7652,2.7668,2.7671,2.7678,2.7671,2.766,2.7668,2.7631,2.767,2.767,2.767,2.767,2.767,2.7148,2.7171,2.7212,2.725,2.728,2.7313,2.7339,2.7369,2.7404,2.7452,2.7469,2.7513,2.7555,2.7618,2.7645,2.7681,2.7682,2.7691,2.7694,2.7696,2.7696,2.7653,2.7689,2.7689,2.7689,2.7689,2.7689,0,2.7167,2.7195,2.723,2.7278,2.731,2.7322,2.7362,2.7388,2.7426,2.7463,2.7499,2.7549,2.7592,2.7631,2.7676,2.7698,2.7707,2.7709,2.7708,2.7714,2.7691,2.7682,2.7701,2.7701,2.7701,2.7701,2.7701,2.7701,2.718,2.7221,2.7242,2.7299,2.7327,2.737,2.7392,2.7424,2.7454,2.7509,2.7544,2.757,2.761,2.7658,2.7699,2.771,2.7726,2.7727,2.774,2.7717,2.7715,2.7714,2.7705,2.7729,2.773,2.776,2.776,2.7761]}]]